| time (UTC) | temp F | wind direction | speed MPH | gust MPH | rain 1hr in | rain 24hr in | rain mn in | humidity % | barometer mb |
| 20260509200031 | 83 | 306 | 2.0 | 4.0 | 0.00 | 0.03 | 0.03 | 68 | 1008.9 |
| 20260509194529 | 85 | 296 | 1.0 | 5.0 | 0.00 | 0.03 | 0.03 | 64 | 1009.1 |
| 20260509193028 | 87 | 267 | 2.0 | 7.0 | 0.00 | 0.03 | 0.03 | 59 | 1009.0 |
| 20260509191527 | 87 | 294 | 2.0 | 6.0 | 0.00 | 0.03 | 0.03 | 63 | 1009.0 |
| 20260509190021 | 86 | 223 | 4.0 | 8.0 | 0.00 | 0.03 | 0.03 | 69 | 1009.0 |
| 20260509184529 | 85 | 187 | 2.0 | 9.0 | 0.00 | 0.03 | 0.03 | 69 | 1009.5 |
| 20260509183016 | 84 | 282 | 3.0 | 8.0 | 0.00 | 0.03 | 0.03 | 71 | 1009.7 |
| 20260509181514 | 83 | 312 | 1.0 | 5.0 | 0.00 | 0.03 | 0.03 | 73 | 1010.0 |
| 20260509180010 | 83 | 329 | 0.0 | 8.0 | 0.00 | 0.03 | 0.03 | 74 | 1010.0 |
| 20260509174509 | 81 | 303 | 1.0 | 5.0 | 0.00 | 0.03 | 0.03 | 78 | 1010.3 |
| 20260509173022 | 81 | 297 | 1.0 | 8.0 | 0.00 | 0.03 | 0.03 | 78 | 1010.5 |
| 20260509171512 | 80 | 245 | 3.0 | 8.0 | 0.00 | 0.03 | 0.03 | 82 | 1010.5 |
| 20260509170011 | 79 | 266 | 5.0 | 8.0 | 0.00 | 0.03 | 0.03 | 84 | 1010.5 |
| 20260509164502 | 79 | 260 | 3.0 | 8.0 | 0.00 | 0.03 | 0.03 | 85 | 1010.5 |
| 20260509163059 | 78 | 133 | 2.0 | 12.0 | 0.00 | 0.03 | 0.03 | 87 | 1010.5 |
| 20260509161556 | 77 | 225 | 7.0 | 14.0 | 0.00 | 0.03 | 0.03 | 88 | 1010.2 |
| 20260509160052 | 76 | 229 | 8.0 | 14.0 | 0.00 | 0.03 | 0.03 | 89 | 1010.2 |
| 20260509154549 | 75 | 235 | 9.0 | 14.0 | 0.00 | 0.03 | 0.03 | 78 | 1010.4 |
| 20260509153046 | 74 | 209 | 6.0 | 13.0 | 0.00 | 0.03 | 0.03 | 67 | 1010.3 |
| 20260509151555 | 73 | 162 | 5.0 | 10.0 | 0.00 | 0.03 | 0.03 | 66 | 1010.3 |
| 20260509150049 | 73 | 185 | 5.0 | 9.0 | 0.00 | 0.03 | 0.03 | 66 | 1010.2 |
| 20260509144541 | 72 | 177 | 5.0 | 10.0 | 0.00 | 0.03 | 0.03 | 67 | 1010.1 |
| 20260509143052 | 72 | 190 | 5.0 | 10.0 | 0.00 | 0.03 | 0.03 | 66 | 1009.8 |
| 20260509141543 | 72 | 166 | 6.0 | 9.0 | 0.00 | 0.03 | 0.03 | 66 | 1009.8 |
| 20260509140038 | 72 | 153 | 5.0 | 9.0 | 0.00 | 0.03 | 0.03 | 67 | 1010.1 |
| 20260509134541 | 71 | 162 | 3.0 | 5.0 | 0.00 | 0.03 | 0.03 | 67 | 1010.2 |
| 20260509133038 | 71 | 119 | 0.0 | 4.0 | 0.00 | 0.03 | 0.03 | 67 | 1010.4 |
| 20260509131545 | 71 | 114 | 0.0 | 1.0 | 0.00 | 0.03 | 0.03 | 67 | 1010.3 |
| 20260509130056 | 71 | 114 | 0.0 | 0.0 | 0.00 | 0.03 | 0.03 | 68 | 1010.0 |
| 20260509124538 | 71 | 114 | 0.0 | 1.0 | 0.00 | 0.03 | 0.03 | 69 | 1009.8 |
| 20260509123102 | 71 | 301 | 0.0 | 1.0 | 0.00 | 0.03 | 0.03 | 70 | 1009.9 |
| 20260509121539 | 71 | 324 | 3.0 | 6.0 | 0.00 | 0.03 | 0.03 | 70 | 1009.9 |
| 20260509120040 | 71 | 22 | 0.0 | 3.0 | 0.00 | 0.03 | 0.03 | 70 | 1009.9 |
| 20260509114534 | 71 | 359 | 3.0 | 7.0 | 0.01 | 0.03 | 0.03 | 71 | 1010.2 |
| 20260509113031 | 71 | 337 | 3.0 | 5.0 | 0.02 | 0.03 | 0.03 | 71 | 1010.5 |
| 20260509111530 | 71 | 159 | 0.0 | 2.0 | 0.03 | 0.03 | 0.03 | 72 | 1010.5 |
| 20260509110029 | 71 | 268 | 0.0 | 2.0 | 0.03 | 0.03 | 0.03 | 72 | 1010.8 |
| 20260509104529 | 71 | 360 | 0.0 | 1.0 | 0.01 | 0.01 | 0.01 | 73 | 1011.0 |
| 20260509103027 | 71 | 360 | 0.0 | 4.0 | 0.01 | 0.01 | 0.01 | 74 | 1010.9 |
| 20260509101535 | 71 | 2 | 3.0 | 5.0 | 0.00 | 0.00 | 0.00 | 75 | 1010.8 |
| 20260509100023 | 71 | 213 | 1.0 | 3.0 | 0.00 | 0.00 | 0.00 | 77 | 1010.2 |
| 20260509094530 | 71 | 213 | 0.0 | 3.0 | 0.00 | 0.00 | 0.00 | 79 | 1009.5 |
| 20260509093021 | 72 | 211 | 0.0 | 0.0 | 0.00 | 0.00 | 0.00 | 80 | 1009.6 |
| 20260509091520 | 72 | 211 | 0.0 | 0.0 | 0.00 | 0.00 | 0.00 | 81 | 1009.5 |
| 20260509090019 | 72 | 211 | 0.0 | 0.0 | 0.00 | 0.00 | 0.00 | 82 | 1009.6 |
| 20260509084519 | 72 | 211 | 0.0 | 0.0 | 0.00 | 0.00 | 0.00 | 82 | 1009.7 |
| 20260509083017 | 72 | 211 | 0.0 | 0.0 | 0.00 | 0.00 | 0.00 | 83 | 1010.0 |
| 20260509081517 | 72 | 211 | 0.0 | 0.0 | 0.00 | 0.00 | 0.00 | 84 | 1010.2 |
| 20260509080016 | 72 | 211 | 0.0 | 0.0 | 0.00 | 0.00 | 0.00 | 85 | 1010.2 |
| 20260509074514 | 72 | 211 | 0.0 | 0.0 | 0.00 | 0.00 | 0.00 | 85 | 1010.4 |
| 20260509073014 | 72 | 211 | 0.0 | 3.0 | 0.00 | 0.00 | 0.00 | 86 | 1010.4 |
| 20260509071511 | 72 | 128 | 0.0 | 3.0 | 0.00 | 0.00 | 0.00 | 86 | 1010.3 |
| 20260509070005 | 72 | 145 | 1.0 | 5.0 | 0.00 | 0.00 | 0.00 | 86 | 1010.0 |
| 20260509064501 | 72 | 157 | 2.0 | 8.0 | 0.00 | 0.00 | 0.00 | 87 | 1010.2 |
| 20260509063057 | 72 | 133 | 1.0 | 4.0 | 0.00 | 0.00 | 0.00 | 87 | 1009.9 |
| 20260509061606 | 72 | 136 | 2.0 | 5.0 | 0.00 | 0.00 | 0.00 | 87 | 1009.8 |
| 20260509060054 | 72 | 135 | 5.0 | 10.0 | 0.00 | 0.00 | 0.00 | 88 | 1010.1 |
| 20260509054609 | 72 | 153 | 4.0 | 9.0 | 0.00 | 0.00 | 0.00 | 88 | 1009.8 |
| 20260509053056 | 72 | 159 | 2.0 | 6.0 | 0.00 | 0.00 | 0.00 | 88 | 1009.7 |
| 20260509051549 | 72 | 165 | 5.0 | 10.0 | 0.00 | 0.00 | 0.00 | 89 | 1009.6 |
| 20260509050043 | 72 | 125 | 6.0 | 10.0 | 0.00 | 0.00 | 0.00 | 89 | 1009.5 |
| 20260509044543 | 71 | 121 | 4.0 | 6.0 | 0.00 | 0.00 | 0.00 | 89 | 1009.6 |
| 20260509043042 | 71 | 131 | 0.0 | 0.0 | 0.00 | 0.00 | 0.00 | 89 | 1009.7 |
| 20260509041543 | 72 | 157 | 1.0 | 4.0 | 0.00 | 0.00 | 0.00 | 89 | 1009.7 |
| 20260509040044 | 72 | 137 | 3.0 | 5.0 | 0.00 | 0.00 | 0.00 | 89 | 1009.8 |
| 20260509034541 | 72 | 160 | 3.0 | 6.0 | 0.00 | 0.00 | 0.00 | 89 | 1009.4 |
| 20260509033040 | 72 | 135 | 2.0 | 3.0 | 0.00 | 0.00 | 0.00 | 89 | 1009.4 |
| 20260509031553 | 72 | 135 | 1.0 | 3.0 | 0.00 | 0.00 | 0.00 | 89 | 1009.5 |
| 20260509030040 | 72 | 154 | 0.0 | 1.0 | 0.00 | 0.00 | 0.00 | 88 | 1009.2 |
| 20260509024539 | 73 | 133 | 0.0 | 1.0 | 0.00 | 0.00 | 0.00 | 88 | 1009.0 |
| 20260509023039 | 73 | 129 | 0.0 | 3.0 | 0.00 | 0.00 | 0.00 | 87 | 1008.9 |
| 20260509021539 | 74 | 117 | 0.0 | 2.0 | 0.00 | 0.00 | 0.00 | 86 | 1008.7 |
| 20260509020043 | 74 | 124 | 0.0 | 1.0 | 0.00 | 0.00 | 0.00 | 86 | 1008.6 |
| 20260509014541 | 74 | 126 | 0.0 | 4.0 | 0.00 | 0.00 | 0.00 | 85 | 1008.7 |
| 20260509013037 | 75 | 116 | 0.0 | 1.0 | 0.00 | 0.00 | 0.00 | 84 | 1008.5 |
| 20260509011536 | 75 | 97 | 0.0 | 1.0 | 0.00 | 0.00 | 0.00 | 83 | 1008.4 |
| 20260509010043 | 75 | 135 | 0.0 | 3.0 | 0.00 | 0.00 | 0.00 | 83 | 1008.6 |
| 20260509004535 | 76 | 124 | 0.0 | 3.0 | 0.00 | 0.00 | 0.00 | 82 | 1008.6 |
| 20260509003037 | 76 | 126 | 0.0 | 4.0 | 0.00 | 0.00 | 0.00 | 81 | 1008.4 |
| 20260509001534 | 77 | 124 | 0.0 | 5.0 | 0.00 | 0.00 | 0.00 | 81 | 1008.6 |
| 20260509000033 | 77 | 129 | 3.0 | 6.0 | 0.00 | 0.00 | 0.00 | 80 | 1008.6 |
| 20260508234532 | 77 | 124 | 1.0 | 6.0 | 0.00 | 0.00 | 0.00 | 80 | 1008.6 |
| 20260508233032 | 77 | 135 | 3.0 | 7.0 | 0.00 | 0.00 | 0.00 | 79 | 1008.7 |
| 20260508231531 | 78 | 130 | 4.0 | 8.0 | 0.00 | 0.00 | 0.00 | 78 | 1008.6 |
| 20260508230030 | 78 | 126 | 3.0 | 6.0 | 0.00 | 0.00 | 0.00 | 78 | 1008.6 |
| 20260508224530 | 78 | 157 | 1.0 | 9.0 | 0.00 | 0.00 | 0.00 | 78 | 1008.5 |
| 20260508223033 | 78 | 107 | 3.0 | 7.0 | 0.00 | 0.00 | 0.00 | 77 | 1008.5 |
| 20260508221530 | 78 | 132 | 2.0 | 9.0 | 0.00 | 0.00 | 0.00 | 77 | 1008.6 |
| 20260508214526 | 80 | 126 | 3.0 | 7.0 | 0.00 | 0.00 | 0.00 | 72 | 1008.6 |
| 20260508213031 | 82 | 56 | 0.0 | 4.0 | 0.00 | 0.00 | 0.00 | 71 | 1008.8 |
| 20260508211525 | 81 | 114 | 2.0 | 6.0 | 0.00 | 0.00 | 0.00 | 71 | 1009.0 |
| 20260508210024 | 81 | 159 | 4.0 | 9.0 | 0.00 | 0.00 | 0.00 | 69 | 1009.2 |
| 20260508204522 | 82 | 121 | 0.0 | 3.0 | 0.00 | 0.00 | 0.00 | 70 | 1009.6 |
| 20260508203017 | 81 | 129 | 0.0 | 5.0 | 0.00 | 0.00 | 0.00 | 71 | 1009.8 |
| 20260508201513 | 79 | 139 | 2.0 | 5.0 | 0.00 | 0.00 | 0.00 | 73 | 1010.1 |